Regional Weather Roundup
Issued by NWS

Home | Current Version | Previous Version | Graphics & Text | Print | Product List | Glossary Off
Versions: 1 2 3 4 5 6 7 8 9 10 11 12 13 14 15 16 17 18 19 20 21 22 23 24 25 26 27 28 29 30 31 32 33 34 35 36 37 38 39 40 41 42 43 44 45 46 47 48 49 50

000
ASUS43 KDTX 110510
RWRMI
MICHIGAN HOURLY REGIONAL WEATHER ROUNDUP
NATIONAL WEATHER SERVICE DETROIT/PONTIAC MI
1200 AM EST THU FEB 11 2016

NOTE: "FAIR" INDICATES FEW OR NO CLOUDS BELOW 12,000 FEET WITH NO
SIGNIFICANT WEATHER AND/OR OBSTRUCTION TO VISIBILITY.

MIZ047>049-052>055-059>063-066>070-074>076-081>083-110600-
SOUTHEAST LOWER MICHIGAN

CITY           SKY/WX    TMP DP  RH WIND       PRES   REMARKS
ADRIAN         CLEAR     12   3  67 NW8       30.05R WCI   0
ALMA           PTCLDY    10   6  85 W3        30.05R
ANN ARBOR      CLEAR     10   3  73 NW8       30.02R WCI  -2
BAD AXE        CLOUDY    11   3  69 NW15G23   29.96R WCI  -5
CARO           PTCLDY     7  -2  66 NW8       30.00R WCI  -6
DETROIT CITY   PTCLDY    13   2  61 NW9G16    30.01R WCI   1
DETROIT        MOCLDY    14   4  64 W12       30.04R WCI   0
FLINT          CLOUDY    12   0  58 NW12      30.02R WCI  -2
GROSSE ILE     CLEAR     16   5  62 W9        30.02R WCI   4
HILLSDALE      CLEAR     11   2  67 NW7       30.02R WCI   0
HOWELL         PTCLDY     9   4  79 W6        30.01R WCI  -1

CITY           SKY/WX    TMP DP  RH WIND       PRES   REMARKS
JACKSON        CLEAR     11   3  70 W7        30.03R WCI   0
LAMBERTVILLE   CLEAR     13   4  66 NW6       30.05R WCI   4
LANSING        CLEAR     11   4  73 W7        30.05R WCI   0
LAPEER         CLOUDY     9   2  73 NW8       30.00R WCI  -3
MASON          CLEAR      9   3  77 W7        30.03R WCI  -2
MONROE         CLEAR     14   6  70 NW8       30.03S WCI   3
MT. CLEMENS    CLEAR     11   1  62 NW13G22   29.99R WCI  -4
PONTIAC        MOCLDY    11   1  64 NW13G21   29.98R WCI  -4
PORT HOPE        N/A     13   5  70 NW25G35   29.93R WCI  -7
PORT HURON     CLEAR     10   0  61 NW9G17    29.98R WCI  -2
TRI CITIES     CLEAR      9  -1  64 NW5       30.04R WCI   1
MIDLAND        FAIR       5  -1  76 CALM      30.03R
TROY           MOCLDY    13   5  68 W8        30.02S WCI   2
SAGINAW HB     PTCLDY     9   1  72 W6        30.03R WCI  -1
$$
MIZ043>046-050>051-056>058-064>065-071>073-077>080-110600-
SOUTHWEST LOWER MICHIGAN

CITY           SKY/WX    TMP DP  RH WIND       PRES   REMARKS
BATTLE CREEK   MOCLDY    13   4  67 W3        30.06R
BENTON HARBOR  LGT SNOW  18  11  74 NW5       30.10S WCI  11
BIG RAPIDS     FLURRIES  10   7  89 W5        30.02S WCI   2
COLDWATER      CLOUDY    14   6  70 W5        30.06R WCI   6
FREMONT        CLOUDY    12   7  80 W3        30.06R
HOLLAND        LGT SNOW  16  10  77 N6        30.09R WCI   7
GRAND RAPIDS   MOCLDY    14   9  80 NW7       30.06R WCI   4
IONIA          FAIR      13   7  77 W8        30.04S WCI   1
KALAMAZOO      CLOUDY    14   6  70 W7        30.07R WCI   4
LUDINGTON      FLURRIES  15   7  69 NW9       30.10R WCI   3
MARSHALL       CLEAR      9   4  78 W3        30.05R
MOUNT PLEASANT CLOUDY    13   6  74 W5        30.03R WCI   5
MUSKEGON       FLURRIES  17   7  64 NW10      30.09R WCI   5
SOUTH HAVEN    CLOUDY    15  12  87 CALM      30.09S
$$
MIZ016>042-110600-
NORTHERN LOWER MICHIGAN

CITY           SKY/WX    TMP DP  RH WIND       PRES   REMARKS
ALPENA         MIX PCPN   9   0  67 N12       29.97R WCI  -6
BEAVER ISLAND  LGT SNOW  14   8  75 N8G17     30.02R WCI   3
BELLAIRE       MOCLDY    14   2  58 N5        30.02R WCI   6
CADILLAC       CLEAR      8   3  81 W8        29.96S WCI  -4
CHARLEVOIX     CLOUDY    15   5  63 NW18G25   30.03S WCI  -1
FRANKFORT      LGT SNOW  15   6  68 NW14      30.07R WCI   0
GAYLORD        CLOUDY     8   2  76 N3        29.94R
GRAYLING       LGT SNOW   2  -1  88 CALM      29.96S
HARBOR SPRINGS PTCLDY    10   3  72 CALM      30.00R
HOUGHTON LAKE  CLEAR      5   1  83 W6        29.97R WCI  -6
MANISTEE       CLOUDY    16   1  53 N12       30.07S WCI   3
OSCODA         CLEAR      7   0  70 NW8       29.97R WCI  -5
PELLSTON       MOCLDY     6   1  80 N8        30.01R WCI  -7
ROGERS CITY    CLOUDY     8   0  68 NW10G17   30.00R WCI  -6
TRAVERSE CITY  LGT SNOW  14   5  67 W15       30.02S WCI  -1
$$
MIZ007>008-015-110600-
EASTERN UPPER MICHIGAN

CITY           SKY/WX    TMP DP  RH WIND       PRES   REMARKS
KINROSS        CLEAR     -4  -9  77 CALM      30.01R
MACKINAC ISLAN PTCLDY     4  -4  70 N9G16     30.01R WCI -10
NEWBERRY       CLOUDY     8   3  80 N3        30.00R
S. S. MARIE    CLEAR     -1 -11  62 N8        30.00F WCI -15
MUNISING         N/A     13   7  77 N21       30.05R WCI  -5
$$
MIZ004>006-011>014-085-110600-
CENTRAL UPPER MICHIGAN

CITY           SKY/WX    TMP DP  RH WIND       PRES   REMARKS
MANISTIQUE     FLURRIES   7   4  84 W10       30.03S WCI  -7
ESCANABA       CLEAR      7  -2  66 NW8       30.09S WCI  -6
MENOMINEE      MOCLDY     7  -4  61 CALM      30.15R
SAWYER-GWINN   CLOUDY     4   0  81 NW8       30.03R WCI  -9
$$
MIZ001>003-009>011-084-110600-
WESTERN UPPER MICHIGAN

CITY           SKY/WX    TMP DP  RH WIND       PRES   REMARKS
IRON MOUNTAIN  CLOUDY     7  -2  66 NW6       30.07S WCI  -3
HOUGHTON       LGT SNOW   8   0  69 N10       30.09R WCI  -6
COPPER HARBOR    N/A     11   6  81 N22G30    30.11S WCI  -8
IRONWOOD       CLOUDY     9   3  78 NW7       30.11R WCI  -3
$$

ABBREVIATIONS USED IN REMARKS
   TC - TEMPERATURE IN CELSIUS
  WCI - WIND CHILL INDEX
   HX - HEAT INDEX
  VSB - VISIBILITY




USA.gov is the U.S. government's official web portal to all federal, state and local government web resources and services.